Location: Wildlife_Club
(35.6000°N, 81.4330°W)
Time: 09:38:10
(UTC-04:00)

Amateur Radio Satellites - All Passes

Search period start: 04 July 2015 09:08
Search period end: 05 July 2015 09:08
Location: Wildlife_Club, 35.6000°N, 81.4330°W

Satellite Date Start Highest point End Downlink Frequencies (MHz)
Time Altitude Azimuth
BEESAT 3 04 Jul 09:09:42 09:12:29 17° 311° (NW) 09:15:10 437.485
COMPASS 1 04 Jul 09:13:19 09:14:29 11° 90° (E) 09:15:57 437.405
CUTE 1.7 + AOD 2 04 Jul 09:20:19 09:23:42 23° 94° (E) 09:27:11 437.475
BEESAT 2 04 Jul 09:21:27 09:24:12 17° 312° (NW) 09:26:50 435.950
ISS 04 Jul 09:23:05 09:26:02 31° 325° (NW) 09:28:58 145.825
CANX-2 04 Jul 09:23:23 09:27:04 28° 96° (E) 09:30:49 2200.000
DANDE 04 Jul 09:24:01 09:31:31 60° 280° (W) 09:37:20 436.750
CINEMA 3 04 Jul 09:32:34 09:34:52 15° 92° (E) 09:37:24 145.822/145.860
GOMX 1 04 Jul 09:34:43 09:38:53 67° 101° (E) 09:43:00 467.674
M-CUBED/EXP-1 PRIME 04 Jul 09:35:01 09:38:02 34° 257° (WSW) 09:41:09 437.505
GONETS M04 04 Jul 09:45:07 09:53:48 69° 93° (E) 10:02:29
VERMONT LUNAR 04 Jul 09:51:32 09:54:28 36° 351° (N) 09:57:24 437.305
BRITE-PL 04 Jul 09:58:01 10:01:56 35° 287° (WNW) 10:05:41 437.365/2234.400
PHONESAT 2.4 04 Jul 10:03:31 10:06:57 83° 158° (SSE) 10:10:24 2401.200-2431.200
TIGRISAT 04 Jul 10:04:43 10:05:55 11° 67° (ENE) 10:07:23 435.000
SEEDS 04 Jul 10:08:30 10:12:46 72° 101° (E) 10:17:01 437.485
CUSAT 1 04 Jul 10:08:39 10:12:50 17° 286° (WNW) 10:16:13 437.405
RS-15 04 Jul 10:11:48 10:20:39 25° 34° (NNE) 10:30:08 29.354- 29.394
Cosmos 2499 04 Jul 10:14:22 10:17:54 15° 83° (E) 10:21:54 435.465 / 435.565
DOVE 4 04 Jul 10:20:26 10:24:30 56° 285° (WNW) 10:28:36 437.250
AAUSAT CUBESAT 2 04 Jul 10:20:26 10:24:38 66° 100° (E) 10:28:50 437.432
HO-68 04 Jul 10:21:05 10:28:16 86° 286° (WNW) 10:35:27 435.675
CUBEBUG 2 04 Jul 10:22:09 10:25:41 26° 96° (E) 10:29:23 437.445
ZACube-1 04 Jul 10:26:23 10:29:11 18° 93° (E) 10:32:10 437.345
Oscar 11 04 Jul 10:35:01 10:39:07 40° 98° (E) 10:43:13 145.826/435.025
DELFI C3 04 Jul 10:38:33 10:42:05 29° 96° (E) 10:45:40 145.870
AIST 2 04 Jul 10:39:12 10:40:58 12° 315° (NW) 10:42:35 435.215
UNISAT 6 04 Jul 10:41:32 10:45:19 32° 72° (ENE) 10:49:08 437.425
COMPASS 1 04 Jul 10:46:24 10:50:30 49° 285° (WNW) 10:54:35 437.405
HUMSAT D 04 Jul 10:48:40 10:50:20 12° 91° (E) 10:52:14 437.325/437.525
QB50P2 04 Jul 10:52:30 10:55:15 17° 69° (ENE) 10:58:07 145.880/145.840
POPSAT HIP 1 04 Jul 10:53:20 10:56:03 17° 69° (ENE) 10:58:53 437.405
CUTE 1.7 + AOD 2 04 Jul 10:56:01 10:59:34 25° 289° (WNW) 11:03:02 437.475
CANX-2 04 Jul 10:59:36 11:02:51 21° 290° (WNW) 11:06:00 2200.000
FUNcube-1 04 Jul 11:01:40 11:05:44 45° 99° (E) 11:09:53 145.935
CINEMA 3 04 Jul 11:08:25 11:12:16 36° 286° (WNW) 11:16:09 145.822/145.860
UWE-3 04 Jul 11:13:19 11:17:33 88° 101° (ESE) 11:21:53 435.000/436.395/437.385
ANTELSAT 04 Jul 11:25:29 11:29:47 75° 257° (WSW) 11:34:04 437.575/2403.000
VERMONT LUNAR 04 Jul 11:28:52 11:31:47 34° 7° (N) 11:34:44 437.305
QB50P1 04 Jul 11:30:52 11:34:56 47° 75° (ENE) 11:39:02 145.935-145.965
VELOX 1 04 Jul 11:37:10 11:40:23 20° 94° (E) 11:43:42 145.980
TIGRISAT 04 Jul 11:38:04 11:42:17 54° 260° (W) 11:46:27 435.000
PHONESAT 2.4 04 Jul 11:41:56 11:45:10 37° 353° (N) 11:48:25 2401.200-2431.200
GONETS M04 04 Jul 11:44:44 11:51:30 23° 293° (WNW) 11:57:52
NANOSAT C BR1 04 Jul 11:45:01 11:49:14 71° 76° (ENE) 11:53:28 145.865
DX 1 04 Jul 11:46:47 11:51:00 50° 100° (E) 11:55:13 434.975-435.025
DUCHIFAT 1 04 Jul 11:52:02 11:56:17 84° 74° (ENE) 12:00:31 145.980
POLYITAN 1 04 Jul 11:56:49 12:01:03 80° 256° (WSW) 12:05:19 437.675
CUBEBUG 2 04 Jul 11:59:01 12:02:17 21° 289° (WNW) 12:05:29 437.445
ZACube-1 04 Jul 12:01:51 12:05:38 32° 287° (WNW) 12:09:27 437.345
Cosmos 2499 04 Jul 12:03:16 12:10:20 72° 279° (W) 12:17:26 435.465 / 435.565
UKube-1 04 Jul 12:07:58 12:12:19 84° 102° (ESE) 12:16:38 .
BUGSAT 1 04 Jul 12:09:59 12:14:14 89° 78° (ENE) 12:18:27 437.445
HO-68 04 Jul 12:11:19 12:15:08 15° 301° (WNW) 12:18:34 435.675
Oscar 11 04 Jul 12:12:20 12:14:59 16° 291° (WNW) 12:17:30 145.826/435.025
DELFI C3 04 Jul 12:14:06 12:17:00 18° 290° (WNW) 12:19:45 145.870
UNISAT 6 04 Jul 12:19:12 12:22:12 18° 267° (W) 12:25:03 437.425
50 SAT 04 Jul 12:19:42 12:23:37 83° 101° (E) 12:27:34 437.505
HUMSAT D 04 Jul 12:22:21 12:26:20 43° 285° (WNW) 12:30:19 437.325/437.525
AISAT 04 Jul 12:23:16 12:27:41 75° 102° (ESE) 12:32:04 437.250
RS-15 04 Jul 12:23:34 12:35:24 80° 59° (ENE) 12:47:39 29.354- 29.394
QB50P2 04 Jul 12:27:01 12:30:54 33° 263° (W) 12:34:45 145.880/145.840
POPSAT HIP 1 04 Jul 12:27:47 12:31:41 34° 263° (W) 12:35:32 437.405
FUNcube-1 04 Jul 12:39:38 12:41:44 13° 291° (WNW) 12:43:39 145.935
CUBEBUG 1 04 Jul 12:41:52 12:46:12 63° 100° (E) 12:50:29 437.445
TISAT 1 04 Jul 12:53:04 12:54:53 13° 91° (E) 12:56:56 437.305
ESTCUBE 1 04 Jul 12:54:33 12:59:06 78° 284° (WNW) 13:03:36 437.505/2401.250
VERMONT LUNAR 04 Jul 13:05:44 13:08:53 78° 204° (SSW) 13:12:03 437.305
QB50P1 04 Jul 13:09:25 13:11:08 12° 270° (W) 13:12:33 145.935-145.965
VELOX 1 04 Jul 13:13:06 13:16:59 30° 289° (WNW) 13:20:47 145.980
PHONESAT 2.4 04 Jul 13:20:17 13:23:35 41° 10° (N) 13:26:54 2401.200-2431.200
DX 1 04 Jul 13:24:52 13:26:51 13° 293° (WNW) 13:28:38 434.975-435.025
YUBILEINY 04 Jul 13:30:20 13:33:01 12° 60° (ENE) 13:36:29 435.215
Oscar 19 04 Jul 13:40:26 13:45:16 44° 73° (ENE) 13:50:09 437.125/150
SPROUT 04 Jul 13:44:31 13:48:48 88° 283° (WNW) 13:53:04 437.525
Gurwin Techsat 1B 04 Jul 13:47:09 13:49:49 15° 65° (ENE) 13:52:45 435.225
ITAMSAT 1 04 Jul 13:53:42 13:56:42 16° 66° (ENE) 13:59:57 435.822/435.867
ISS 04 Jul 14:17:42 14:18:52 12° 24° (NNE) 14:20:07 145.825
CUBEBUG 1 04 Jul 14:21:16 14:22:04 10° 294° (WNW) 14:22:36 437.445
TISAT 1 04 Jul 14:26:58 14:30:55 41° 287° (WNW) 14:34:50 437.305
RS-15 04 Jul 14:37:44 14:46:59 26° 255° (WSW) 14:55:48 29.354- 29.394
VERMONT LUNAR 04 Jul 14:43:56 14:45:29 13° 216° (SW) 14:46:58 437.305
BEESAT 04 Jul 14:48:38 14:53:11 43° 98° (E) 14:57:46 436.000
AO-7 04 Jul 14:55:33 15:01:05 21° 57° (ENE) 15:07:00 29.400- 29.500
PHONESAT 2.4 04 Jul 14:58:17 15:01:43 60° 206° (SSW) 15:05:09 2401.200-2431.200
SWISSCUBE 04 Jul 15:04:03 15:08:52 71° 102° (ESE) 15:13:39 437.505
ITUPSAT 1 04 Jul 15:09:19 15:14:08 72° 102° (ESE) 15:18:56 437.325
Oscar 19 04 Jul 15:21:15 15:24:52 18° 268° (W) 15:28:18 437.125/150
YUBILEINY 04 Jul 15:22:59 15:31:44 74° 81° (E) 15:40:32 435.215
Gurwin Techsat 1B 04 Jul 15:24:03 15:29:18 65° 258° (WSW) 15:34:37 435.225
AIST 1 04 Jul 15:29:00 15:31:47 17° 89° (E) 15:34:44
ITAMSAT 1 04 Jul 15:30:40 15:35:47 56° 260° (W) 15:40:56 435.822/435.867
JAS-2 04 Jul 15:35:45 15:40:27 37° 71° (ENE) 15:45:20 435.910
Cosmos 2491 04 Jul 15:40:01 15:48:29 55° 91° (E) 15:57:00 435.465 / 435.565
ISS 04 Jul 15:52:32 15:55:46 76° 42° (NE) 15:59:00 145.825
BEESAT 3 04 Jul 15:53:29 15:54:53 12° 45° (NE) 15:56:27 437.485
HORYU 2 04 Jul 16:00:18 16:04:21 37° 72° (ENE) 16:08:27 437.375
KKS-1 04 Jul 16:03:56 16:08:11 45° 99° (E) 16:12:26 437.445
BEESAT 2 04 Jul 16:05:24 16:07:04 12° 45° (NE) 16:08:54 435.950
PCSat 04 Jul 16:18:31 16:23:54 77° 116° (ESE) 16:29:21 145.827
BEESAT 04 Jul 16:27:30 16:30:44 18° 293° (WNW) 16:33:47 436.000
PHONESAT 2.4 04 Jul 16:38:34 16:39:20 10° 218° (SW) 16:39:57 2401.200-2431.200
SWISSCUBE 04 Jul 16:44:40 16:46:11 11° 295° (WNW) 16:47:24 437.505
AO-7 04 Jul 16:44:43 16:53:04 82° 255° (WSW) 17:01:29 29.400- 29.500
ITUPSAT 1 04 Jul 16:50:03 16:51:29 11° 295° (WNW) 16:52:38 437.325
STARS 04 Jul 16:55:56 17:00:19 74° 284° (WNW) 17:04:40 437.465
SO-50 04 Jul 17:00:12 17:04:37 45° 115° (ESE) 17:09:15 436.795
JUGNU 04 Jul 17:01:00 17:03:50 14° 170° (S) 17:06:44 437.505
AIST 1 04 Jul 17:05:13 17:09:12 32° 283° (WNW) 17:13:10
O/OREOS (USA 219) 04 Jul 17:09:07 17:11:42 15° 57° (ENE) 17:14:28 437.305
Cosmos 2504 04 Jul 17:21:24 17:28:36 47° 78° (ENE) 17:36:23 435.465 / 435.565
YUBILEINY 04 Jul 17:21:45 17:27:48 20° 277° (W) 17:33:23 435.215
JAS-2 04 Jul 17:21:58 17:25:51 20° 268° (W) 17:29:37 435.910
AIST 2 04 Jul 17:22:53 17:25:57 20° 50° (NE) 17:29:05 435.215
BEESAT 3 04 Jul 17:29:18 17:33:19 64° 243° (WSW) 17:37:14 437.485
Cosmos 2491 04 Jul 17:38:18 17:45:49 29° 290° (WNW) 17:53:06 435.465 / 435.565
HORYU 2 04 Jul 17:38:20 17:41:11 16° 268° (W) 17:43:51 437.375
BEESAT 2 04 Jul 17:41:33 17:45:34 60° 244° (WSW) 17:49:30 435.950
KKS-1 04 Jul 17:41:59 17:44:28 14° 293° (WNW) 17:46:46 437.445
MOZHAYETS 4 04 Jul 17:57:38 18:02:18 83° 102° (ESE) 18:06:57
PCSat 04 Jul 18:04:52 18:08:01 15° 314° (NW) 18:10:58 145.827
CUTE-I 04 Jul 18:06:52 18:11:15 27° 69° (ENE) 18:15:45 437.470
CUBESAT XI-V 04 Jul 18:27:00 18:28:26 12° 89° (E) 18:30:11 437.345
Cubesat XI-IV 04 Jul 18:40:07 18:45:20 57° 74° (ENE) 18:50:37 437.490
SO-50 04 Jul 18:41:50 18:45:27 20° 313° (NW) 18:49:01 436.795
AO-7 04 Jul 18:43:19 18:47:13 13° 272° (W) 18:50:22 29.400- 29.500
O/OREOS (USA 219) 04 Jul 18:47:05 18:51:27 46° 254° (WSW) 18:55:47 437.305
JUGNU 04 Jul 18:48:22 18:52:08 17° 180° (S) 18:55:54 437.505
AIST 2 04 Jul 19:00:50 19:04:38 34° 246° (WSW) 19:08:21 435.215
CUSAT 1 04 Jul 19:06:33 19:07:37 12° 73° (ENE) 19:08:47 437.405
Cosmos 2504 04 Jul 19:14:08 19:20:36 30° 272° (W) 19:27:14 435.465 / 435.565
STRAND 1 04 Jul 19:22:56 19:26:03 17° 91° (E) 19:29:22 437.568
BRITE-PL 04 Jul 19:27:56 19:31:31 19° 69° (ENE) 19:35:09 437.365/2234.400
SRMSAT 04 Jul 19:40:52 19:44:22 16° 175° (S) 19:47:54 437.500
CUTE-I 04 Jul 19:46:22 19:51:13 34° 263° (W) 19:56:02 437.470
GONETS M04 04 Jul 19:59:52 20:06:58 28° 70° (ENE) 20:14:18
CUBESAT XI-V 04 Jul 20:01:44 20:06:20 57° 285° (WNW) 20:10:53 437.345
DANDE 04 Jul 20:10:20 20:13:04 89° 261° (W) 20:15:38 436.750
PRISM 04 Jul 20:11:40 20:15:45 50° 100° (E) 20:19:49 437.425
CUTE 1.7 + AOD 2 04 Jul 20:12:14 20:13:43 12° 68° (ENE) 20:15:27 437.475
CANX-2 04 Jul 20:14:50 20:17:04 15° 69° (ENE) 20:19:29 2200.000
Cubesat XI-IV 04 Jul 20:22:38 20:25:53 15° 269° (W) 20:28:51 437.490
CINEMA 3 04 Jul 20:33:12 20:34:23 11° 68° (ENE) 20:35:49 145.822/145.860
JUGNU 04 Jul 20:37:29 20:40:26 14° 190° (S) 20:43:18 437.505
GOMX 1 04 Jul 20:39:03 20:44:08 55° 75° (ENE) 20:48:56 467.674
HO-68 04 Jul 20:46:07 20:52:58 53° 70° (ENE) 20:59:53 435.675
SEEDS 04 Jul 20:57:49 21:01:32 33° 73° (ENE) 21:05:19 437.485
STRAND 1 04 Jul 21:00:37 21:05:35 49° 287° (WNW) 21:10:29 437.568
BRITE-PL 04 Jul 21:04:21 21:09:44 51° 261° (W) 21:14:50 437.365/2234.400
AAUSAT CUBESAT 2 04 Jul 21:08:35 21:12:07 29° 72° (ENE) 21:15:45 437.432
M-CUBED/EXP-1 PRIME 04 Jul 21:17:59 21:21:01 19° 99° (E) 21:24:20 437.505
CUBEBUG 2 04 Jul 21:18:41 21:21:17 16° 70° (ENE) 21:24:01 437.445
DOVE 4 04 Jul 21:22:18 21:27:16 84° 258° (WSW) 21:31:56 437.250
DELFI C3 04 Jul 21:24:41 21:26:19 13° 68° (ENE) 21:28:10 145.870
Oscar 11 04 Jul 21:27:33 21:30:48 22° 70° (ENE) 21:34:10 145.826/435.025
SRMSAT 04 Jul 21:29:17 21:32:50 16° 185° (S) 21:36:20 437.500
COMPASS 1 04 Jul 21:34:15 21:38:22 73° 77° (ENE) 21:42:32 437.405
CUTE 1.7 + AOD 2 04 Jul 21:45:10 21:49:15 49° 261° (W) 21:53:21 437.475
CANX-2 04 Jul 21:48:44 21:52:41 39° 262° (W) 21:56:39 2200.000
PRISM 04 Jul 21:49:06 21:50:48 12° 293° (WNW) 21:52:17 437.425
FUNcube-1 04 Jul 21:55:10 21:58:33 24° 72° (ENE) 22:01:59 145.935
GONETS M04 04 Jul 21:55:53 22:04:19 55° 269° (W) 22:12:38
Cosmos 2499 04 Jul 21:56:39 22:03:38 34° 74° (ENE) 22:11:12 435.465 / 435.565
CINEMA 3 04 Jul 22:06:42 22:11:13 59° 259° (W) 22:15:32 145.822/145.860
UWE-3 04 Jul 22:07:38 22:11:43 47° 75° (ENE) 22:15:46 435.000/436.395/437.385
AUBIESAT-1 04 Jul 22:17:02 22:21:22 78° 108° (ESE) 22:25:57 437.475
GOMX 1 04 Jul 22:19:37 22:22:32 14° 269° (W) 22:25:06 467.674
VELOX 1 04 Jul 22:33:06 22:35:15 14° 67° (ENE) 22:37:38 145.980
SEEDS 04 Jul 22:34:42 22:37:27 16° 268° (W) 22:40:02 437.485
HO-68 04 Jul 22:35:13 22:41:03 25° 266° (W) 22:46:39 435.675
DX 1 04 Jul 22:39:39 22:43:28 30° 71° (ENE) 22:47:20 434.975-435.025
AAUSAT CUBESAT 2 04 Jul 22:44:49 22:47:46 18° 267° (W) 22:50:37 437.432
M-CUBED/EXP-1 PRIME 04 Jul 22:51:55 22:55:52 36° 291° (WNW) 23:00:01 437.505
CUBEBUG 2 04 Jul 22:53:46 22:57:46 35° 262° (W) 23:01:39 437.445
ZACube-1 04 Jul 22:54:27 22:58:38 59° 260° (W) 23:02:46 437.345
DELFI C3 04 Jul 22:57:16 23:01:05 42° 262° (W) 23:04:54 145.870
UKube-1 04 Jul 22:59:44 23:03:53 47° 74° (ENE) 23:08:05 .
50 SAT 04 Jul 23:01:16 23:04:33 28° 73° (ENE) 23:07:53 437.505
Oscar 11 04 Jul 23:03:12 23:06:52 27° 265° (W) 23:10:29 145.826/435.025
HUMSAT D 04 Jul 23:10:47 23:14:54 85° 73° (ENE) 23:19:00 437.325/437.525
AISAT 04 Jul 23:17:58 23:22:14 46° 74° (ENE) 23:26:31 437.250
ANTELSAT 04 Jul 23:20:27 23:24:13 27° 96° (E) 23:28:06 437.575/2403.000
SRMSAT 04 Jul 23:20:43 23:21:15 10° 194° (SSW) 23:21:39 437.500
FUNcube-1 04 Jul 23:31:29 23:34:50 22° 265° (W) 23:38:05 145.935
TIGRISAT 04 Jul 23:32:27 23:36:29 36° 97° (E) 23:40:38 435.000
NANOSAT C BR1 04 Jul 23:34:27 23:36:33 14° 92° (E) 23:38:52 145.865
CUBEBUG 1 04 Jul 23:35:04 23:39:06 36° 73° (ENE) 23:43:11 437.445
DUCHIFAT 1 04 Jul 23:40:52 23:43:28 16° 93° (E) 23:46:11 145.980
POLYITAN 1 04 Jul 23:45:58 23:49:03 20° 94° (E) 23:52:14 437.675
UWE-3 04 Jul 23:46:58 23:48:34 11° 269° (W) 23:49:52 435.000/436.395/437.385
Cosmos 2499 04 Jul 23:49:27 23:56:55 44° 269° (W) 00:04:47 435.465 / 435.565
ESTCUBE 1 04 Jul 23:50:57 23:55:26 67° 76° (ENE) 23:59:59 437.505/2401.250
BUGSAT 1 04 Jul 23:56:36 23:58:56 15° 92° (E) 00:01:24 437.445
VELOX 1 05 Jul 00:07:06 00:11:26 49° 261° (W) 00:15:46 145.980
UNISAT 6 05 Jul 00:12:04 00:16:29 73° 283° (WNW) 00:20:57 437.425
QB50P2 05 Jul 00:14:52 00:18:55 46° 99° (E) 00:22:59 145.880/145.840
POPSAT HIP 1 05 Jul 00:15:31 00:19:32 45° 99° (E) 00:23:35 437.405
DX 1 05 Jul 00:16:28 00:19:46 20° 266° (W) 00:22:56 434.975-435.025
SPROUT 05 Jul 00:35:34 00:39:42 47° 75° (ENE) 00:43:52 437.525
50 SAT 05 Jul 00:36:48 00:39:15 16° 267° (W) 00:41:33 437.505
UKube-1 05 Jul 00:38:22 00:40:21 12° 269° (W) 00:42:04 .
RS-15 05 Jul 00:41:20 00:43:03 11° 99° (E) 00:46:02 29.354- 29.394
QB50P1 05 Jul 00:54:26 00:58:35 57° 285° (WNW) 01:02:42 145.935-145.965
AISAT 05 Jul 00:56:42 00:59:06 14° 269° (W) 01:01:15 437.250
ANTELSAT 05 Jul 00:57:23 01:00:53 23° 289° (WNW) 01:04:21 437.575/2403.000
NANOSAT C BR1 05 Jul 01:08:41 01:12:36 39° 287° (WNW) 01:16:30 145.865
PCSat 05 Jul 01:09:42 01:14:32 33° 55° (NE) 01:19:25 145.827
TIGRISAT 05 Jul 01:10:01 01:13:00 18° 291° (WNW) 01:15:53 435.000
CUBEBUG 1 05 Jul 01:12:34 01:15:36 17° 267° (W) 01:18:27 437.445
TISAT 1 05 Jul 01:15:32 01:19:47 87° 253° (WSW) 01:24:03 437.305
DUCHIFAT 1 05 Jul 01:15:36 01:19:23 33° 287° (WNW) 01:23:08 145.980
POLYITAN 1 05 Jul 01:21:21 01:24:59 27° 288° (WNW) 01:28:30 437.675
BUGSAT 1 05 Jul 01:30:53 01:34:32 32° 288° (WNW) 01:38:07 437.445
SO-50 05 Jul 01:34:57 01:38:43 22° 48° (NE) 01:42:32 436.795
BEESAT 05 Jul 01:52:19 01:56:37 36° 72° (ENE) 02:01:00 436.000
QB50P2 05 Jul 01:52:26 01:54:27 13° 292° (WNW) 01:56:15 145.880/145.840
POPSAT HIP 1 05 Jul 01:53:00 01:55:04 13° 292° (WNW) 01:56:55 437.405
Cosmos 2491 05 Jul 01:55:09 02:01:27 22° 67° (ENE) 02:08:06 435.465 / 435.565
Oscar 19 05 Jul 01:55:46 01:59:21 20° 93° (E) 02:03:07 437.125/150
SWISSCUBE 05 Jul 02:07:34 02:12:14 58° 74° (ENE) 02:16:58 437.505
ITUPSAT 1 05 Jul 02:13:04 02:17:45 59° 75° (ENE) 02:22:30 437.325
SPROUT 05 Jul 02:14:12 02:16:06 12° 270° (W) 02:17:45 437.525
YUBILEINY 05 Jul 02:28:28 02:32:35 15° 81° (E) 02:37:22 435.215
RS-15 05 Jul 02:43:02 02:53:45 70° 115° (ESE) 03:04:48 29.354- 29.394
PCSat 05 Jul 02:53:12 02:57:54 30° 251° (WSW) 03:02:30 145.827
KKS-1 05 Jul 02:59:26 03:03:16 29° 71° (ENE) 03:07:08 437.445
SO-50 05 Jul 03:14:48 03:19:31 44° 245° (WSW) 03:24:05 436.795
AIST 1 05 Jul 03:15:05 03:19:14 42° 79° (E) 03:23:21
BEESAT 05 Jul 03:31:01 03:34:35 20° 267° (W) 03:38:01 436.000
Oscar 19 05 Jul 03:34:06 03:38:55 41° 288° (WNW) 03:43:42 437.125/150
Gurwin Techsat 1B 05 Jul 03:43:14 03:48:32 66° 101° (E) 03:53:49 435.225
ITAMSAT 1 05 Jul 03:46:26 03:51:39 67° 101° (ESE) 03:56:49 435.822/435.867
SWISSCUBE 05 Jul 03:48:27 03:50:32 12° 270° (W) 03:52:19 437.505
STARS 05 Jul 03:49:37 03:53:59 66° 75° (ENE) 03:58:21 437.465
Cosmos 2491 05 Jul 03:50:32 03:59:13 69° 267° (W) 04:07:47 435.465 / 435.565
ITUPSAT 1 05 Jul 03:54:08 03:56:07 12° 270° (W) 03:57:48 437.325
YUBILEINY 05 Jul 04:19:43 04:28:25 88° 277° (W) 04:37:10 435.215
JAS-2 05 Jul 04:30:06 04:36:44 53° 100° (E) 04:44:05 435.910
KKS-1 05 Jul 04:36:26 04:39:55 21° 266° (W) 04:43:17 437.445
AO-7 05 Jul 04:50:04 04:57:47 42° 99° (E) 05:05:35 29.400- 29.500
AIST 1 05 Jul 04:54:33 04:56:31 12° 273° (W) 04:58:14
MOZHAYETS 4 05 Jul 04:56:30 05:00:56 53° 75° (ENE) 05:05:26
RS-15 05 Jul 04:57:25 05:07:08 34° 318° (NW) 05:16:56 29.354- 29.394
Gurwin Techsat 1B 05 Jul 05:25:09 05:28:01 14° 295° (WNW) 05:30:38 435.225
ITAMSAT 1 05 Jul 05:27:58 05:30:39 14° 295° (WNW) 05:33:02 435.822/435.867
HORYU 2 05 Jul 05:30:25 05:34:52 69° 285° (WNW) 05:39:19 437.375
Cosmos 2504 05 Jul 05:49:42 05:55:45 34° 89° (E) 06:01:54 435.465 / 435.565
JAS-2 05 Jul 06:16:00 06:21:34 27° 291° (WNW) 06:27:22 435.910
YUBILEINY 05 Jul 06:21:41 06:26:44 15° 297° (WNW) 06:31:12 435.215
CUTE-I 05 Jul 06:28:26 06:30:34 13° 89° (E) 06:33:04 437.470
STRAND 1 05 Jul 06:36:06 06:39:33 19° 67° (ENE) 06:43:10 437.568
MOZHAYETS 4 05 Jul 06:36:37 06:38:34 12° 270° (W) 06:40:14
AO-7 05 Jul 06:42:53 06:50:34 41° 295° (WNW) 06:58:05 29.400- 29.500
PRISM 05 Jul 06:59:12 07:02:35 25° 71° (ENE) 07:06:04 437.425
Cubesat XI-IV 05 Jul 07:00:53 07:05:28 29° 96° (E) 07:10:05 437.490
CUBESAT XI-V 05 Jul 07:01:39 07:06:22 85° 255° (WSW) 07:11:07 437.345
VERMONT LUNAR 05 Jul 07:15:09 07:18:01 35° 150° (SSE) 07:20:55 437.305
O/OREOS (USA 219) 05 Jul 07:17:41 07:21:25 27° 104° (ESE) 07:25:14 437.305
BEESAT 3 05 Jul 07:18:53 07:22:45 45° 115° (ESE) 07:26:42 437.485
RS-15 05 Jul 07:19:35 07:24:42 13° 352° (N) 07:29:42 29.354- 29.394
BEESAT 2 05 Jul 07:32:00 07:35:56 50° 116° (ESE) 07:39:57 435.950
DANDE 05 Jul 07:34:11 07:38:54 20° 93° (E) 07:43:17 436.750
Cosmos 2504 05 Jul 07:41:45 07:47:57 33° 285° (WNW) 07:54:00 435.465 / 435.565
PHONESAT 2.4 05 Jul 07:44:39 07:45:34 11° 142° (SE) 07:46:38 2401.200-2431.200
CUTE-I 05 Jul 08:05:54 08:11:14 67° 286° (WNW) 08:16:31 437.470
M-CUBED/EXP-1 PRIME 05 Jul 08:06:10 08:06:49 11° 63° (ENE) 08:07:39 437.505
CUSAT 1 05 Jul 08:06:23 08:12:49 48° 97° (E) 08:17:51 437.405
STRAND 1 05 Jul 08:13:30 08:18:26 46° 261° (W) 08:23:23 437.568
ISS 05 Jul 08:29:14 08:32:27 64° 319° (NW) 08:35:41 145.825
PRISM 05 Jul 08:34:40 08:38:00 22° 265° (W) 08:41:14 437.425
Cubesat XI-IV 05 Jul 08:40:50 08:45:33 31° 290° (WNW) 08:50:10 437.490
GOMX 1 05 Jul 08:45:25 08:47:58 16° 92° (E) 08:50:41 467.674
VERMONT LUNAR 05 Jul 08:51:52 08:54:53 47° 345° (NNW) 08:57:56 437.305
AIST 2 05 Jul 08:55:09 08:59:24 81° 299° (WNW) 09:03:42 435.215
O/OREOS (USA 219) 05 Jul 08:57:14 09:00:50 23° 299° (WNW) 09:04:22 437.305
BEESAT 3 05 Jul 08:58:27 09:00:59 15° 312° (NW) 09:03:24 437.485
